Showing default

CAPELLA-14 (ACADIA), 59444

Orbit data source: Space-Track

CAPELLA-14 (ACADIA), 59444 is a payload satellite owned by Capella Space (US) in LEO that was launched on Sun, 07 Apr 2024 UTC via an FALCON 9 launch vehicle from the Air Force Eastern Test Range (AFETR). Payload-class satellites include a variety of spacecraft equipped with specific instruments for various scientific and technological missions. These include communications satellites like Starlink; space stations such as the ISS; scientific satellites like the Hubble; Earth observation satellites from companies like Planet Labs, Umbra, and HawkEye 360; GPS; miniature CubeSats for education and research; and military/defense satellites.

Loading next visibility...
Identifier
59444, 2024-066C
Orbit
LEO
Country
Flag of USUS
Related business
Manufacturer
Capella Space
Mission
Operational Commercial Radar Imaging
Bus & Motor
ACADIA, Unknown motor
Mass
180 kg wet, ~150 kg dry
Launch date (UTC)
2024-04-07 (2 years ago)
Launch vehicle
FALCON 9
Launch site
Air Force Eastern Test Range (AFETR)
Object type
Payload
Rocket body
Debris
Shape & HBR
Box + 2 Pan + 1 Dish + 1 Rod, 1.8 m
Radar Cross Section
0.463 m², Large (>1 m²)

Expand to show TLE details & history
Last TLE update: 23 hours ago

TLE from 23 hours ago
0 CAPELLA-14 (ACADIA)
1 59444U 24066C   26036.54316056  .00027863  00000-0  17354-2 0  9999
2 59444  45.6032 228.9551 0004667 279.9893  80.0465 15.09175481 92566
Epoch: 2026-02-05T13:02Z
TLE epoch observation values (Epoch: 2026-02-05T13:02:09.072Z)
Latitude
-0.00004°
Longitude
-102.27662°
Altitude
538.227 km
Speed
7.595 km/s
True Right ascension
15h 15m 49s
True Declination
0° 00' 00"
Sunlit
Object was in daylight at epoch
Visualization orbit readout
Latitude
Unknown
Longitude
Unknown
Altitude
Unknown
Speed
Unknown
Apparent Right ascension
Unknown
Apparent Declination
Unknown
Sunlit
N/A
Visualization observer readout
Local Sidereal Time
14:22:22
Azimuth
Unknown
Elevation
Unknown
Doppler factor
Unknown
Orbital elements
Apogee altitude
543.443 km
Perigee altitude
536.985 km
Semi-major axis
6,918.351 km
Eccentricity
0.00047
Inclination
45.6032°
RAAN
228.9551°
Arg. of periapsis
279.9893°
True anomaly
80.09918°
Mean anomaly
80.0465°
Eccentric anomaly
80.07284°
Mean motion
3.77172 °/min
Orbital period
95.45 mins
BSTAR
0.0017354
Loading maneuver chart data...
Computing Atmospheric mass density...
Loading historical data...
Loading historical data...
Loading historical data...
Loading historical data...
Loading historical data...
Loading historical data...
Loading historical data...

Documentation

Showing up to 5 results
|